Orbital Elements at Epoch 2459200.5 (2020-Dec-17.0) TDB
Reference: JPL 17 (heliocentric ecliptic J2000)
Element | Value | Uncertainty (1-sigma) | Units |
e | .1062139237721871 | 4.9183e-08 | |
a | 3.124725335314958 | 2.4865e-08 | au |
q | 2.792835996740793 | 1.6028e-07 | au |
i | 6.295713833584336 | 5.6669e-06 | deg |
node | 71.69316488227254 | 4.6781e-05 | deg |
peri | 29.86044131081785 | 5.5262e-05 | deg |
M | 326.4059263829199 | 2.8282e-05 | deg |
tp | 2459388.767939162985 (2021-Jun-23.26793916) | 0.00015847 | TDB |
period | 2017.512340754505 5.52 | 2.4081e-05 6.593e-08 | d yr |
n | .178437570233334 | 2.1298e-09 | deg/d |
Q | 3.456614673889122 | 2.7506e-08 | au |
|
| | Orbit Determination Parameters
Additional Information
|